Regional Weather Roundup
Issued by NWS

Home | Current Version | Previous Version | Graphics & Text | Print | Product List | Glossary On
Versions: 1 2 3 4 5 6 7 8 9 10 11 12 13 14 15 16 17 18 19 20 21 22 23 24 25 26 27 28 29 30 31 32 33 34 35 36 37 38 39 40 41 42 43 44 45 46 47 48 49 50
000
ASUS43 KLOT 052200
RWRIL

ILLINOIS REGIONAL WEATHER ROUNDUP
NATIONAL WEATHER SERVICE CHICAGO/ROMEOVILLE IL
500 PM CDT SUN JUL 05 2015

NOTE: "FAIR" INDICATES FEW OR NO CLOUDS BELOW 12,000 FEET WITH NO
SIGNIFICANT WEATHER AND/OR OBSTRUCTIONS TO VISIBILITY.

* THESE STATIONS ARE NOT UNDER NWS QUALITY CONTROL. THEY ALSO MAY NOT
  REPORT WEATHER SUCH AS PRECIPITATION OR FOG.

ILZ001-002-007-009-015-016-024-052300-
NORTHWEST ILLINOIS

CITY           SKY/WX    TMP DP  RH WIND       PRES   REMARKS
MOLINE         MOSUNNY   83  66  56 S8        30.00S HX  85
STERLING*      MOSUNNY   82  66  57 S5        30.02F HX  85
$$

ILZ003-004-008-010-011-017-018-052300-
NORTH CENTRAL ILLINOIS

CITY           SKY/WX    TMP DP  RH WIND       PRES   REMARKS
ROCKFORD       MOSUNNY   82  64  54 S10       30.04F HX  83
$$

ILZ005-006-012>014-019>023-052300-
NORTHEAST ILLINOIS

CITY           SKY/WX    TMP DP  RH WIND       PRES   REMARKS
CHICAGO-OHARE  MOSUNNY   82  60  47 S10       30.03F HX  82
CHICAGO-MIDWAY MOSUNNY   85  60  42 SW8       30.03F HX  85
AURORA         SUNNY     81  62  52 S9        30.04F HX  82
WAUKEGAN       SUNNY     76  61  59 SE8       30.04F
DUPAGE AIRPORT SUNNY     81  62  52 S10       30.03F HX  82
WHEELING       SUNNY     83  58  42 S10       30.04F HX  83
NORTHERLY ISL    N/A     73  62  68 E10         N/A
$$

LMZ740>746-052300-
SOUTHERN LAKE MICHIGAN

STATION/POSITION SKY/WX   TEMP    WIND        PRES    VSBY  WAVE
                          AIR SEA DIR/SP/G                  HT/PER
                          (F)     (DEG/KT/KT) (MB)    (MI)  (FT/S)
HARRISON CRIB              72     100/ 16/ 17   N/A
BURNHAM HARBOR             73     100/ 11/ 11   N/A
CALUMET HARBOR             74      70/  7/ 10   N/A
BURNS HARBOR               74      60/  5/  7 1017.9F
MICHIGAN CITY              71      20/  9/ 10   N/A
MICHIGAN CITY 6N           70 69   80/  4/  6   N/A           1
ST. JOSEPH                 70 69                N/A           0
$$

ILZ025>027-034>036-040-047-049-050-058-095>099-052300-
WEST-CENTRAL ILLINOIS

CITY           SKY/WX    TMP DP  RH WIND       PRES   REMARKS
QUINCY         MOSUNNY   84  68  58 S8        29.99F HX  87
$$

ILZ028>032-037-038-041>044-048-051>054-059>061-052300-
CENTRAL ILLINOIS

CITY           SKY/WX    TMP DP  RH WIND       PRES   REMARKS
DECATUR        MOSUNNY   82  64  54 S8        30.05F HX  83
PEORIA         SUNNY     84  64  50 S8        30.03S HX  85
SPRINGFIELD    MOSUNNY   84  67  56 S8        30.02F HX  86
TAYLORVILLE    NOT AVBL
$$

ILZ033-039-045-046-055>057-062-063-052300-
EAST-CENTRAL ILLINOIS

CITY           SKY/WX    TMP DP  RH WIND       PRES   REMARKS
CHAMPAIGN      SUNNY     81  65  58 S5        30.06S HX  83
MATTOON        MOSUNNY   82  66  58 S5        30.04F HX  84
$$

ILZ079-100>102-052300-
SOUTHWEST ILLINOIS

CITY           SKY/WX    TMP DP  RH WIND       PRES   REMARKS
ALTON          PTSUNNY   84 N/A N/A SE7       30.03
BELLEVILLE     MOSUNNY   85  69  59 S7        30.01F HX  89
CAHOKIA*       MOSUNNY   86  67  52 SE7       30.01F HX  89
$$

ILZ064>066-069>071-074>076-080>082-084>086-088>090-092>094-052300-
SOUTH-CENTRAL ILLINOIS

CITY           SKY/WX    TMP DP  RH WIND       PRES   REMARKS
CARBONDALE     PTSUNNY   83  66  56 S7        30.03F HX  85
MARION         MOSUNNY   84  64  51 S6        30.04F HX  86
MT. VERNON     MOSUNNY   86  64  48 SW7       30.05S HX  87
$$

ILZ067-068-072-073-078-083-087-091-052300-
SOUTHEAST ILLINOIS

CITY           SKY/WX    TMP DP  RH WIND       PRES   REMARKS
LAWRENCEVILLE  SUNNY     83  68  60 S7        30.04F HX  86
$$

ABBREVIATIONS USED IN REMARKS
   TC - TEMPERATURE IN CELSIUS
  WCI - WIND CHILL INDEX
   HX - HEAT INDEX
  VSB - VISIBILITY
$$




USA.gov is the U.S. government's official web portal to all federal, state and local government web resources and services.